BHEX SKRG-KMIA

Flight info

Callsign BHEX
Flight time 3h 0m
Altitude 38000
Route BUTAL3A BUTAL UP778 CTG/N0458F400 UM779 ZEUSS VIICE2
Aircraft CL60/M-SBDE1E2E3FGHIJ1J4J5J7M3RWXYZ/LB1V1D1

Departure

Time 2026-04-22 02:31
Airport Jose Maria Córdova International Airport (SKRG)

Arrival

Time 2026-04-22 05:31
Airport Miami International Airport (KMIA)
Time Latitude Longitude Altitude Speed Heading
2026-04-22 02:05 6.16853 -75.42825 6993 ft 0 kts 167°
2026-04-22 02:23 6.16849 -75.42816 6993 ft 3 kts 57°
2026-04-22 02:23 6.16878 -75.42816 6995 ft 4 kts 16°
2026-04-22 02:23 6.16906 -75.42801 6996 ft 5 kts 46°
2026-04-22 02:24 6.16908 -75.42755 6996 ft 10 kts 108°
2026-04-22 02:24 6.16922 -75.42679 6995 ft 13 kts 45°
2026-04-22 02:24 6.16953 -75.42650 6996 ft 4 kts 33°
2026-04-22 02:24 6.16979 -75.42632 6997 ft 4 kts 33°
2026-04-22 02:25 6.17013 -75.42609 6997 ft 7 kts 33°
2026-04-22 02:25 6.17022 -75.42574 6996 ft 9 kts 152°
2026-04-22 02:25 6.16950 -75.42534 6992 ft 14 kts 150°
2026-04-22 02:25 6.16865 -75.42488 6987 ft 13 kts 165°
2026-04-22 02:26 6.16748 -75.42486 6981 ft 20 kts 180°
2026-04-22 02:26 6.16586 -75.42485 6975 ft 24 kts 178°
2026-04-22 02:26 6.16403 -75.42482 6972 ft 27 kts 182°
2026-04-22 02:26 6.16204 -75.42479 6970 ft 29 kts 175°
2026-04-22 02:27 6.15991 -75.42479 6967 ft 31 kts 181°
2026-04-22 02:27 6.15763 -75.42478 6965 ft 32 kts 180°
2026-04-22 02:27 6.15535 -75.42478 6965 ft 33 kts 179°
2026-04-22 02:27 6.15296 -75.42477 6964 ft 34 kts 181°
2026-04-22 02:28 6.15059 -75.42474 6959 ft 27 kts 179°
2026-04-22 02:28 6.14919 -75.42472 6953 ft 14 kts 162°
2026-04-22 02:28 6.14886 -75.42396 6952 ft 12 kts 90°
2026-04-22 02:28 6.14933 -75.42326 6953 ft 13 kts 26°
2026-04-22 02:29 6.15012 -75.42303 6956 ft 3 kts
2026-04-22 02:29 6.15013 -75.42303 6956 ft 0 kts
2026-04-22 02:30 6.15019 -75.42303 6956 ft 12 kts
2026-04-22 02:30 6.15443 -75.42304 6964 ft 105 kts 357°
2026-04-22 02:30 6.16428 -75.42311 6985 ft 171 kts 359°
2026-04-22 02:30 6.17711 -75.42338 7447 ft 200 kts 358°
2026-04-22 02:31 6.19192 -75.42353 8093 ft 227 kts
2026-04-22 02:31 6.20867 -75.42350 8835 ft 252 kts
2026-04-22 02:31 6.22713 -75.42346 9505 ft 279 kts
2026-04-22 02:31 6.24685 -75.42355 10540 ft 289 kts
2026-04-22 02:32 6.26710 -75.42366 11621 ft 296 kts 359°
2026-04-22 02:32 6.28776 -75.42378 12625 ft 304 kts 359°
2026-04-22 02:32 6.30916 -75.42390 13661 ft 309 kts 359°
2026-04-22 02:32 6.33066 -75.42402 14633 ft 314 kts 359°
2026-04-22 02:33 6.35266 -75.42387 15568 ft 319 kts
2026-04-22 02:33 6.37494 -75.42362 16447 ft 325 kts
2026-04-22 02:33 6.39784 -75.42337 17294 ft 329 kts
2026-04-22 02:33 6.42076 -75.42313 18110 ft 334 kts
2026-04-22 02:34 6.44433 -75.42340 18889 ft 338 kts 359°
2026-04-22 02:34 6.46793 -75.42395 19653 ft 342 kts 359°
2026-04-22 02:34 6.49169 -75.42449 20372 ft 345 kts 359°
2026-04-22 02:34 6.51612 -75.42506 21042 ft 350 kts 359°
2026-04-22 02:35 6.54059 -75.42562 21681 ft 355 kts 359°
2026-04-22 02:35 6.56552 -75.42620 22351 ft 358 kts 359°
2026-04-22 02:35 6.59045 -75.42678 23011 ft 362 kts 359°
2026-04-22 02:35 6.61597 -75.42738 23631 ft 367 kts 359°
2026-04-22 02:36 6.64159 -75.42798 24303 ft 371 kts 359°
2026-04-22 02:36 6.66765 -75.42859 24996 ft 374 kts 359°
2026-04-22 02:36 6.69388 -75.42921 25633 ft 378 kts 359°
2026-04-22 02:36 6.72006 -75.42982 26195 ft 383 kts 359°
2026-04-22 02:37 6.74694 -75.43046 26790 ft 387 kts 359°
2026-04-22 02:37 6.77418 -75.43111 27427 ft 389 kts 359°
2026-04-22 02:37 6.80137 -75.43175 27981 ft 393 kts 359°
2026-04-22 02:37 6.82862 -75.43240 28548 ft 395 kts 359°
2026-04-22 02:38 6.85644 -75.43305 29089 ft 399 kts 359°
2026-04-22 02:38 6.88487 -75.43373 29556 ft 404 kts 359°
2026-04-22 02:38 6.91284 -75.43439 30055 ft 407 kts 359°
2026-04-22 02:38 6.94160 -75.43507 30537 ft 410 kts 359°
2026-04-22 02:39 6.97051 -75.43576 31019 ft 413 kts 359°
2026-04-22 02:39 6.99965 -75.43645 31441 ft 417 kts 359°
2026-04-22 02:39 7.02928 -75.43716 31838 ft 421 kts 359°
2026-04-22 02:39 7.05948 -75.43787 32209 ft 425 kts 359°
2026-04-22 02:40 7.08948 -75.43859 32622 ft 427 kts 359°
2026-04-22 02:40 7.11967 -75.43931 33098 ft 429 kts 359°
2026-04-22 02:40 7.15016 -75.44004 33497 ft 431 kts 359°
2026-04-22 02:40 7.18127 -75.44078 33799 ft 436 kts 359°
2026-04-22 02:41 7.21266 -75.44153 34194 ft 438 kts 359°
2026-04-22 02:41 7.24383 -75.44227 34652 ft 438 kts 360°
2026-04-22 02:41 7.27469 -75.44301 35177 ft 436 kts 360°
2026-04-22 02:41 7.30576 -75.44376 35676 ft 435 kts 360°
2026-04-22 02:42 7.33673 -75.44450 36123 ft 434 kts
2026-04-22 02:42 7.36668 -75.44521 36513 ft 434 kts
2026-04-22 02:42 7.39721 -75.44595 36886 ft 434 kts
2026-04-22 02:42 7.42740 -75.44667 37214 ft 434 kts
2026-04-22 02:43 7.45818 -75.44741 37542 ft 434 kts
2026-04-22 02:43 7.48860 -75.44814 37892 ft 433 kts
2026-04-22 02:43 7.51905 -75.44888 38095 ft 436 kts
2026-04-22 02:44 7.58057 -75.45033 38061 ft 449 kts
2026-04-22 02:44 7.64428 -75.45185 38029 ft 461 kts
2026-04-22 02:45 7.70975 -75.45341 38019 ft 471 kts
2026-04-22 02:45 7.77907 -75.45506 38018 ft 479 kts
2026-04-22 02:46 7.84945 -75.45675 38000 ft 482 kts
2026-04-22 02:46 7.91700 -75.45818 37980 ft 481 kts
2026-04-22 02:47 7.98541 -75.45959 37981 ft 480 kts
2026-04-22 02:47 8.01885 -75.46028 38104 ft 478 kts
2026-04-22 02:47 8.05195 -75.46098 38968 ft 464 kts
2026-04-22 02:47 8.08402 -75.46165 39882 ft 451 kts 360°
2026-04-22 02:48 8.11521 -75.46230 39967 ft 453 kts 360°
2026-04-22 02:48 8.17902 -75.46362 39979 ft 459 kts 359°
2026-04-22 02:49 8.24332 -75.46495 39977 ft 465 kts 359°
2026-04-22 02:49 8.30867 -75.46630 39961 ft 470 kts 359°
2026-04-22 02:50 8.37430 -75.46766 39970 ft 473 kts 359°
2026-04-22 02:50 8.44053 -75.46903 39963 ft 476 kts 359°
2026-04-22 02:51 8.50741 -75.47041 39964 ft 476 kts 359°
2026-04-22 02:51 8.57399 -75.47179 39978 ft 475 kts 359°
2026-04-22 02:52 8.64025 -75.47316 39984 ft 475 kts 359°
2026-04-22 02:52 8.70642 -75.47453 39980 ft 475 kts 359°
2026-04-22 02:53 8.77297 -75.47591 39974 ft 475 kts 359°
2026-04-22 02:53 8.83916 -75.47729 39979 ft 475 kts 359°
2026-04-22 02:54 8.90545 -75.47866 39964 ft 475 kts 359°
2026-04-22 02:54 8.97181 -75.48004 39972 ft 474 kts 359°
2026-04-22 02:55 9.03778 -75.48141 39968 ft 474 kts 359°
2026-04-22 02:55 9.10419 -75.48280 39968 ft 474 kts 359°
2026-04-22 02:56 9.17037 -75.48417 39971 ft 474 kts 359°
2026-04-22 02:56 9.23649 -75.48555 39977 ft 474 kts 359°
2026-04-22 02:57 9.30298 -75.48693 39975 ft 475 kts 359°
2026-04-22 02:57 9.36941 -75.48832 39967 ft 476 kts 359°
2026-04-22 02:58 9.43548 -75.48969 39967 ft 476 kts 359°
2026-04-22 02:58 9.50183 -75.49107 39963 ft 475 kts 359°
2026-04-22 02:59 9.56816 -75.49246 39963 ft 475 kts 359°
2026-04-22 02:59 9.63444 -75.49384 39964 ft 475 kts 359°
2026-04-22 03:00 9.70052 -75.49522 39962 ft 475 kts 359°
2026-04-22 03:00 9.76698 -75.49661 39962 ft 476 kts 359°
2026-04-22 03:01 9.83338 -75.49800 39961 ft 477 kts 359°
2026-04-22 03:01 9.89989 -75.49939 39965 ft 477 kts 359°
2026-04-22 03:02 9.96607 -75.50077 39965 ft 477 kts 359°
2026-04-22 03:02 10.03270 -75.50217 39962 ft 477 kts 359°
2026-04-22 03:03 10.09913 -75.50356 39967 ft 477 kts 359°
2026-04-22 03:03 10.16575 -75.50495 39968 ft 477 kts 359°
2026-04-22 03:04 10.23179 -75.51287 39969 ft 476 kts 345°
2026-04-22 03:04 10.29529 -75.53091 39966 ft 476 kts 343°
2026-04-22 03:05 10.35952 -75.54929 39964 ft 476 kts 343°
2026-04-22 03:05 10.42298 -75.56747 39964 ft 475 kts 343°
2026-04-22 03:06 10.48707 -75.58585 39963 ft 475 kts 343°
2026-04-22 03:06 10.55081 -75.60414 39965 ft 475 kts 343°
2026-04-22 03:07 10.61456 -75.62245 39964 ft 475 kts 343°
2026-04-22 03:07 10.67820 -75.64074 39964 ft 474 kts 343°
2026-04-22 03:08 10.74173 -75.65901 39972 ft 474 kts 343°
2026-04-22 03:08 10.80493 -75.67719 39968 ft 474 kts 343°
2026-04-22 03:09 10.86879 -75.69557 39965 ft 474 kts 343°
2026-04-22 03:09 10.93114 -75.71353 39966 ft 473 kts 343°
2026-04-22 03:10 10.99482 -75.73188 39966 ft 473 kts 343°
2026-04-22 03:10 11.05825 -75.75000 39959 ft 473 kts 343°
2026-04-22 03:11 11.12172 -75.76761 39951 ft 473 kts 343°
2026-04-22 03:11 11.18548 -75.78531 39952 ft 472 kts 343°
2026-04-22 03:12 11.24871 -75.80287 39954 ft 472 kts 343°
2026-04-22 03:12 11.34392 -75.82935 39954 ft 472 kts 343°
2026-04-22 03:13 11.40756 -75.84705 39955 ft 472 kts 343°
2026-04-22 03:13 11.47115 -75.86475 39957 ft 472 kts 343°
2026-04-22 03:14 11.53460 -75.88242 39959 ft 471 kts 343°
2026-04-22 03:14 11.59798 -75.90009 39960 ft 471 kts 343°
2026-04-22 03:15 11.66127 -75.91773 39962 ft 471 kts 343°
2026-04-22 03:15 11.72424 -75.93529 39961 ft 471 kts 343°
2026-04-22 03:16 11.78763 -75.95302 39962 ft 471 kts 343°
2026-04-22 03:16 11.85073 -75.97097 39967 ft 471 kts 343°
2026-04-22 03:17 11.91400 -75.98898 39963 ft 471 kts 342°
2026-04-22 03:17 11.97715 -76.00697 39964 ft 471 kts 342°
2026-04-22 03:18 12.04032 -76.02498 39967 ft 470 kts 343°
2026-04-22 03:18 12.10332 -76.04294 39969 ft 469 kts 342°
2026-04-22 03:19 12.16620 -76.06087 39969 ft 468 kts 342°
2026-04-22 03:19 12.22882 -76.07874 39969 ft 467 kts 342°
2026-04-22 03:20 12.29172 -76.09671 39968 ft 467 kts 342°
2026-04-22 03:20 12.35443 -76.11465 39973 ft 467 kts 342°
2026-04-22 03:21 12.41700 -76.13256 39971 ft 467 kts 342°
2026-04-22 03:21 12.47965 -76.15050 39968 ft 467 kts 342°
2026-04-22 03:22 12.54255 -76.16852 39970 ft 466 kts 342°
2026-04-22 03:22 12.60511 -76.18645 39969 ft 465 kts 342°
2026-04-22 03:23 12.66741 -76.20431 39971 ft 465 kts 342°
2026-04-22 03:23 12.72988 -76.22224 39978 ft 464 kts 342°
2026-04-22 03:24 12.79201 -76.24007 39987 ft 464 kts 342°
2026-04-22 03:24 12.85447 -76.25801 39986 ft 464 kts 342°
2026-04-22 03:25 12.91647 -76.27583 39988 ft 464 kts 342°
2026-04-22 03:25 12.97864 -76.29369 39986 ft 463 kts 342°
2026-04-22 03:26 13.04077 -76.31156 39990 ft 463 kts 342°
2026-04-22 03:26 13.10309 -76.32949 39987 ft 462 kts 342°
2026-04-22 03:27 13.16514 -76.34736 39985 ft 462 kts 342°
2026-04-22 03:27 13.22716 -76.36523 39992 ft 462 kts 342°
2026-04-22 03:28 13.28908 -76.38306 39988 ft 463 kts 342°
2026-04-22 03:28 13.35151 -76.40106 39987 ft 463 kts 342°
2026-04-22 03:29 13.41359 -76.41898 39988 ft 463 kts 342°
2026-04-22 03:29 13.47576 -76.43691 39989 ft 463 kts 341°
2026-04-22 03:30 13.53791 -76.45486 39987 ft 464 kts 341°
2026-04-22 03:30 13.60016 -76.47284 39988 ft 464 kts 341°
2026-04-22 03:31 13.66231 -76.49081 39988 ft 464 kts 341°
2026-04-22 03:31 13.72457 -76.50881 39988 ft 464 kts 341°
2026-04-22 03:32 13.73865 -76.51289 39991 ft 464 kts 341°
2026-04-22 03:32 13.84894 -76.54481 39991 ft 464 kts 341°
2026-04-22 03:33 13.91095 -76.56278 39990 ft 464 kts 341°
2026-04-22 03:33 13.97323 -76.58082 39990 ft 464 kts 341°
2026-04-22 03:34 14.03557 -76.59890 39990 ft 464 kts 341°
2026-04-22 03:34 14.09783 -76.61696 39993 ft 464 kts 341°
2026-04-22 03:35 14.16011 -76.63504 39989 ft 464 kts 341°
2026-04-22 03:35 14.22231 -76.65311 39995 ft 464 kts 341°
2026-04-22 03:36 14.28458 -76.67120 39996 ft 464 kts 341°
2026-04-22 03:36 14.34670 -76.68926 40004 ft 463 kts 341°
2026-04-22 03:37 14.40850 -76.70725 40005 ft 462 kts 341°
2026-04-22 03:37 14.47040 -76.72527 40005 ft 463 kts 341°
2026-04-22 03:38 14.53281 -76.74345 40008 ft 463 kts 341°
2026-04-22 03:38 14.59445 -76.76141 40009 ft 463 kts 341°
2026-04-22 03:39 14.65669 -76.77957 40006 ft 463 kts 341°
2026-04-22 03:39 14.71864 -76.79765 40008 ft 462 kts 341°
2026-04-22 03:40 14.78044 -76.81569 40009 ft 461 kts 341°
2026-04-22 03:40 14.84242 -76.83380 40007 ft 460 kts 341°
2026-04-22 03:41 14.90400 -76.85180 40007 ft 460 kts 341°
2026-04-22 03:41 14.96563 -76.86983 40012 ft 460 kts 341°
2026-04-22 03:42 15.02772 -76.88666 40010 ft 461 kts 344°
2026-04-22 03:42 15.09040 -76.90100 40012 ft 461 kts 344°
2026-04-22 03:43 15.15328 -76.91544 40012 ft 461 kts 344°
2026-04-22 03:43 15.21597 -76.92986 40013 ft 461 kts 344°
2026-04-22 03:44 15.27858 -76.94430 40015 ft 461 kts 344°
2026-04-22 03:44 15.34108 -76.95872 40012 ft 461 kts 344°
2026-04-22 03:45 15.40395 -76.97324 40022 ft 460 kts 344°
2026-04-22 03:45 15.46631 -76.98766 40016 ft 460 kts 344°
2026-04-22 03:46 15.52887 -77.00214 40012 ft 460 kts 344°
2026-04-22 03:46 15.59163 -77.01667 40015 ft 460 kts 344°
2026-04-22 03:47 15.65410 -77.03115 40020 ft 460 kts 344°
2026-04-22 03:47 15.71657 -77.04564 40018 ft 460 kts 344°
2026-04-22 03:48 15.77914 -77.06016 40017 ft 460 kts 344°
2026-04-22 03:48 15.84134 -77.07461 40016 ft 459 kts 344°
2026-04-22 03:49 15.90379 -77.08912 40007 ft 459 kts 344°
2026-04-22 03:49 15.96619 -77.10364 40013 ft 458 kts 344°
2026-04-22 03:50 16.02830 -77.11809 40013 ft 458 kts 344°
2026-04-22 03:50 16.09077 -77.13264 40010 ft 458 kts 344°
2026-04-22 03:51 16.15310 -77.14717 40016 ft 458 kts 344°
2026-04-22 03:51 16.21545 -77.16170 40013 ft 458 kts 344°
2026-04-22 03:52 16.27770 -77.17623 40015 ft 457 kts 343°
2026-04-22 03:52 16.33952 -77.19067 40012 ft 456 kts 343°
2026-04-22 03:53 16.40161 -77.20518 40011 ft 456 kts 343°
2026-04-22 03:53 16.46366 -77.21969 40010 ft 455 kts 343°
2026-04-22 03:54 16.52532 -77.23412 40009 ft 455 kts 343°
2026-04-22 03:54 16.58727 -77.24863 40008 ft 455 kts 343°
2026-04-22 03:55 16.64875 -77.26305 40009 ft 454 kts 343°
2026-04-22 03:55 16.71067 -77.27757 40010 ft 453 kts 343°
2026-04-22 03:56 16.77223 -77.29203 40010 ft 453 kts 343°
2026-04-22 03:56 16.83387 -77.30651 40009 ft 453 kts 343°
2026-04-22 03:57 16.89544 -77.32098 40010 ft 453 kts 343°
2026-04-22 03:57 16.95674 -77.33540 40010 ft 452 kts 343°
2026-04-22 03:58 17.01819 -77.34987 40009 ft 451 kts 343°
2026-04-22 03:58 17.07950 -77.36431 40014 ft 451 kts 343°
2026-04-22 03:59 17.14079 -77.37876 40013 ft 451 kts 343°
2026-04-22 03:59 17.20204 -77.39321 40016 ft 451 kts 343°
2026-04-22 04:00 17.26366 -77.40776 40013 ft 451 kts 343°
2026-04-22 04:00 17.32461 -77.42217 40018 ft 451 kts 343°
2026-04-22 04:01 17.38597 -77.43667 40017 ft 451 kts 343°
2026-04-22 04:01 17.44730 -77.45118 40020 ft 451 kts 343°
2026-04-22 04:02 17.50870 -77.46571 40024 ft 451 kts 343°
2026-04-22 04:02 17.57031 -77.48030 40018 ft 451 kts 343°
2026-04-22 04:03 17.63165 -77.49484 40015 ft 452 kts 343°
2026-04-22 04:03 17.69309 -77.50941 40020 ft 452 kts 343°
2026-04-22 04:04 17.75411 -77.52389 40019 ft 452 kts 342°
2026-04-22 04:04 17.81552 -77.53848 40034 ft 452 kts 342°
2026-04-22 04:05 17.87605 -77.55286 40046 ft 452 kts 342°
2026-04-22 04:05 17.93747 -77.56747 40058 ft 452 kts 342°
2026-04-22 04:06 17.99893 -77.58210 40068 ft 452 kts 342°
2026-04-22 04:06 18.06048 -77.59676 40071 ft 452 kts 342°
2026-04-22 04:07 18.12169 -77.61136 40075 ft 451 kts 342°
2026-04-22 04:07 18.18288 -77.62595 40074 ft 450 kts 342°
2026-04-22 04:08 18.24428 -77.64061 40079 ft 450 kts 342°
2026-04-22 04:08 18.30518 -77.65517 40069 ft 449 kts 342°
2026-04-22 04:09 18.36600 -77.66972 40052 ft 449 kts 342°
2026-04-22 04:09 18.42699 -77.68430 40040 ft 449 kts 342°
2026-04-22 04:10 18.48795 -77.69891 40034 ft 448 kts 342°
2026-04-22 04:10 18.54873 -77.71347 40029 ft 448 kts 342°
2026-04-22 04:11 18.60975 -77.72810 40023 ft 447 kts 342°
2026-04-22 04:11 18.67039 -77.74266 40027 ft 446 kts 341°
2026-04-22 04:12 18.73096 -77.75721 40017 ft 446 kts 341°
2026-04-22 04:12 18.79147 -77.77176 40017 ft 445 kts 341°
2026-04-22 04:13 18.85171 -77.78625 40014 ft 445 kts 341°
2026-04-22 04:13 18.91244 -77.80087 40015 ft 444 kts 341°
2026-04-22 04:14 18.97253 -77.81535 40013 ft 443 kts 341°
2026-04-22 04:14 19.03267 -77.82985 40020 ft 442 kts 341°
2026-04-22 04:15 19.09287 -77.84438 40032 ft 441 kts 341°
2026-04-22 04:15 19.15249 -77.85878 40034 ft 441 kts 341°
2026-04-22 04:16 19.24274 -77.88060 40034 ft 441 kts 341°
2026-04-22 04:17 19.30243 -77.89504 40039 ft 440 kts 341°
2026-04-22 04:17 19.36228 -77.90953 40037 ft 439 kts 341°
2026-04-22 04:18 19.42158 -77.92390 40036 ft 439 kts 341°
2026-04-22 04:18 19.48133 -77.93839 40041 ft 439 kts 341°
2026-04-22 04:19 19.54107 -77.95290 40045 ft 439 kts 341°
2026-04-22 04:19 19.60071 -77.96738 40042 ft 439 kts 341°
2026-04-22 04:20 19.66005 -77.98180 40032 ft 439 kts 341°
2026-04-22 04:20 19.71954 -77.99628 40030 ft 438 kts 341°
2026-04-22 04:21 19.77918 -78.01080 40029 ft 438 kts 340°
2026-04-22 04:21 19.83872 -78.02409 40031 ft 440 kts 343°
2026-04-22 04:22 19.89908 -78.03485 40031 ft 440 kts 344°
2026-04-22 04:22 19.95985 -78.04574 40030 ft 440 kts 343°
2026-04-22 04:23 20.02087 -78.05670 40033 ft 440 kts 343°
2026-04-22 04:23 20.08131 -78.06758 40034 ft 440 kts 343°
2026-04-22 04:24 20.14236 -78.07859 40037 ft 440 kts 343°
2026-04-22 04:24 20.20273 -78.08948 40040 ft 439 kts 343°
2026-04-22 04:25 20.26326 -78.10043 40042 ft 438 kts 343°
2026-04-22 04:25 20.32494 -78.11160 40044 ft 437 kts 343°
2026-04-22 04:26 20.38487 -78.12247 40047 ft 437 kts 343°
2026-04-22 04:26 20.44548 -78.13347 40050 ft 438 kts 343°
2026-04-22 04:27 20.50548 -78.14437 40046 ft 438 kts 343°
2026-04-22 04:27 20.56563 -78.15530 40055 ft 437 kts 343°
2026-04-22 04:28 20.62524 -78.16614 40059 ft 435 kts 343°
2026-04-22 04:28 20.68529 -78.17708 40061 ft 435 kts 343°
2026-04-22 04:29 20.74544 -78.18804 40060 ft 435 kts 342°
2026-04-22 04:29 20.80543 -78.19899 40063 ft 435 kts 343°
2026-04-22 04:30 20.86539 -78.20994 40069 ft 435 kts 343°
2026-04-22 04:30 20.92532 -78.22089 40071 ft 434 kts 342°
2026-04-22 04:31 20.98503 -78.23180 40069 ft 433 kts 342°
2026-04-22 04:31 21.04435 -78.24265 40076 ft 432 kts 342°
2026-04-22 04:32 21.10398 -78.25359 40075 ft 433 kts 342°
2026-04-22 04:32 21.16341 -78.26450 40080 ft 433 kts 342°
2026-04-22 04:33 21.22304 -78.27545 40082 ft 434 kts 342°
2026-04-22 04:33 21.28220 -78.28632 40085 ft 433 kts 342°
2026-04-22 04:34 21.34161 -78.29725 40086 ft 432 kts 342°
2026-04-22 04:34 21.40089 -78.30816 40098 ft 432 kts 342°
2026-04-22 04:35 21.46022 -78.31909 40094 ft 431 kts 342°
2026-04-22 04:35 21.51933 -78.32999 40095 ft 431 kts 342°
2026-04-22 04:36 21.57864 -78.34094 40101 ft 431 kts 342°
2026-04-22 04:36 21.63800 -78.35191 40106 ft 431 kts 342°
2026-04-22 04:37 21.69682 -78.36278 40096 ft 430 kts 341°
2026-04-22 04:37 21.75591 -78.37371 40098 ft 430 kts 341°
2026-04-22 04:38 21.81525 -78.38469 40095 ft 430 kts 341°
2026-04-22 04:38 21.87421 -78.39562 40097 ft 429 kts 341°
2026-04-22 04:39 21.93292 -78.40651 40101 ft 430 kts 341°
2026-04-22 04:39 21.99210 -78.41750 40102 ft 430 kts 341°
2026-04-22 04:40 22.05075 -78.42838 40092 ft 429 kts 341°
2026-04-22 04:40 22.10968 -78.43932 40103 ft 428 kts 341°
2026-04-22 04:41 22.16832 -78.45024 40095 ft 428 kts 341°
2026-04-22 04:41 22.22705 -78.46118 40104 ft 428 kts 341°
2026-04-22 04:42 22.28615 -78.47220 40103 ft 429 kts 341°
2026-04-22 04:42 22.34499 -78.48318 40110 ft 429 kts 341°
2026-04-22 04:43 22.40402 -78.49419 40103 ft 430 kts 341°
2026-04-22 04:43 22.46282 -78.50517 40109 ft 429 kts 341°
2026-04-22 04:44 22.52188 -78.51621 40102 ft 428 kts 341°
2026-04-22 04:44 22.58090 -78.52724 40110 ft 429 kts 341°
2026-04-22 04:45 22.63985 -78.53827 40103 ft 429 kts 341°
2026-04-22 04:45 22.69886 -78.54932 40109 ft 429 kts 342°
2026-04-22 04:46 22.75812 -78.56042 40108 ft 428 kts 341°
2026-04-22 04:46 22.81683 -78.57143 40110 ft 428 kts 341°
2026-04-22 04:47 22.87578 -78.58251 40113 ft 428 kts 341°
2026-04-22 04:47 22.93454 -78.59356 40109 ft 429 kts 341°
2026-04-22 04:48 22.99370 -78.60469 40113 ft 428 kts 342°
2026-04-22 04:48 23.05226 -78.61572 40117 ft 428 kts 341°
2026-04-22 04:49 23.11152 -78.62689 40103 ft 428 kts 342°
2026-04-22 04:49 23.16996 -78.63792 40126 ft 427 kts 341°
2026-04-22 04:50 23.22889 -78.64905 40119 ft 427 kts 342°
2026-04-22 04:50 23.28727 -78.66009 40120 ft 428 kts 341°
2026-04-22 04:51 23.34617 -78.67123 40133 ft 427 kts 341°
2026-04-22 04:51 23.40455 -78.68228 40120 ft 426 kts 341°
2026-04-22 04:52 23.46341 -78.69344 40133 ft 426 kts 341°
2026-04-22 04:52 23.52190 -78.70450 40136 ft 426 kts 341°
2026-04-22 04:53 23.58030 -78.71558 40139 ft 426 kts 341°
2026-04-22 04:53 23.63911 -78.72674 40131 ft 426 kts 341°
2026-04-22 04:54 23.69756 -78.73785 40134 ft 426 kts 341°
2026-04-22 04:54 23.75576 -78.74893 40147 ft 425 kts 341°
2026-04-22 04:55 23.81407 -78.76006 40152 ft 425 kts 341°
2026-04-22 04:55 23.87229 -78.77117 40146 ft 425 kts 341°
2026-04-22 04:56 23.93047 -78.78230 40145 ft 425 kts 341°
2026-04-22 04:56 23.98835 -78.79546 40154 ft 416 kts 334°
2026-04-22 04:57 24.03959 -78.82186 40152 ft 403 kts 322°
2026-04-22 04:57 24.08736 -78.85345 40151 ft 402 kts 322°
2026-04-22 04:57 24.11135 -78.86927 39781 ft 398 kts 322°
2026-04-22 04:58 24.13495 -78.88483 39322 ft 390 kts 321°
2026-04-22 04:58 24.15796 -78.90002 38901 ft 383 kts 321°
2026-04-22 04:58 24.18060 -78.91496 38506 ft 376 kts 321°
2026-04-22 04:58 24.20263 -78.92952 38133 ft 369 kts 321°
2026-04-22 04:59 24.22456 -78.94402 37755 ft 363 kts 321°
2026-04-22 04:59 24.24617 -78.95834 37370 ft 357 kts 322°
2026-04-22 04:59 24.26767 -78.97258 36979 ft 353 kts 322°
2026-04-22 04:59 24.28874 -78.98657 36594 ft 355 kts 321°
2026-04-22 05:00 24.30969 -79.00050 36196 ft 357 kts 321°
2026-04-22 05:00 24.33096 -79.01464 35822 ft 359 kts 321°
2026-04-22 05:00 24.35236 -79.02886 35412 ft 360 kts 322°
2026-04-22 05:00 24.37388 -79.04317 35013 ft 362 kts 322°
2026-04-22 05:01 24.39544 -79.05750 34613 ft 363 kts 322°
2026-04-22 05:01 24.41723 -79.07198 34207 ft 365 kts 322°
2026-04-22 05:01 24.43885 -79.08637 33807 ft 367 kts 322°
2026-04-22 05:01 24.46082 -79.10099 33391 ft 369 kts 323°
2026-04-22 05:02 24.48270 -79.11553 33002 ft 368 kts 323°
2026-04-22 05:02 24.50448 -79.13002 32583 ft 367 kts 323°
2026-04-22 05:02 24.52635 -79.14458 32190 ft 366 kts 323°
2026-04-22 05:02 24.54816 -79.15910 31786 ft 364 kts 324°
2026-04-22 05:03 24.56998 -79.17363 31387 ft 363 kts 323°
2026-04-22 05:03 24.59153 -79.18800 30981 ft 362 kts 324°
2026-04-22 05:03 24.61312 -79.20239 30580 ft 361 kts 324°
2026-04-22 05:03 24.63447 -79.21663 30183 ft 359 kts 324°
2026-04-22 05:04 24.65595 -79.23096 29785 ft 358 kts 324°
2026-04-22 05:04 24.67706 -79.24506 29388 ft 357 kts 325°
2026-04-22 05:04 24.69833 -79.25926 28992 ft 355 kts 325°
2026-04-22 05:04 24.71918 -79.27319 28608 ft 354 kts 325°
2026-04-22 05:05 24.74033 -79.28734 28214 ft 352 kts 325°
2026-04-22 05:05 24.76108 -79.30121 27826 ft 351 kts 325°
2026-04-22 05:05 24.78191 -79.31514 27444 ft 349 kts 325°
2026-04-22 05:05 24.80278 -79.32911 27050 ft 347 kts 325°
2026-04-22 05:06 24.82323 -79.34280 26674 ft 345 kts 325°
2026-04-22 05:06 24.84373 -79.35653 26295 ft 344 kts 325°
2026-04-22 05:06 24.86395 -79.37008 25925 ft 342 kts 325°
2026-04-22 05:06 24.88426 -79.38370 25547 ft 340 kts 325°
2026-04-22 05:07 24.90445 -79.39723 25173 ft 338 kts 325°
2026-04-22 05:07 24.92442 -79.41063 24802 ft 336 kts 325°
2026-04-22 05:07 24.94445 -79.42407 24434 ft 335 kts 325°
2026-04-22 05:07 24.96424 -79.43735 24068 ft 333 kts 326°
2026-04-22 05:08 24.98408 -79.45068 23701 ft 331 kts 326°
2026-04-22 05:08 25.00356 -79.46377 23341 ft 330 kts 326°
2026-04-22 05:08 25.02295 -79.47681 22981 ft 328 kts 326°
2026-04-22 05:08 25.04247 -79.48993 22618 ft 327 kts 326°
2026-04-22 05:09 25.06200 -79.50307 22252 ft 326 kts 326°
2026-04-22 05:09 25.08112 -79.51593 21895 ft 324 kts 326°
2026-04-22 05:09 25.10046 -79.52895 21535 ft 323 kts 326°
2026-04-22 05:09 25.11953 -79.54179 21182 ft 322 kts 326°
2026-04-22 05:10 25.13879 -79.55476 20831 ft 322 kts 327°
2026-04-22 05:10 25.15779 -79.56757 20481 ft 320 kts 327°
2026-04-22 05:10 25.17691 -79.58046 20123 ft 320 kts 327°
2026-04-22 05:10 25.19578 -79.59319 19772 ft 319 kts 327°
2026-04-22 05:11 25.21453 -79.60584 19421 ft 317 kts 327°
2026-04-22 05:11 25.23356 -79.61868 19067 ft 316 kts 327°
2026-04-22 05:11 25.25234 -79.63136 18719 ft 316 kts 327°
2026-04-22 05:11 25.27089 -79.64389 18370 ft 314 kts 327°
2026-04-22 05:12 25.28952 -79.65648 18026 ft 313 kts 327°
2026-04-22 05:12 25.30826 -79.66914 17669 ft 312 kts 327°
2026-04-22 05:12 25.32685 -79.68172 17327 ft 311 kts 327°
2026-04-22 05:12 25.34525 -79.69415 16857 ft 313 kts 328°
2026-04-22 05:13 25.36375 -79.70668 16456 ft 308 kts 328°
2026-04-22 05:13 25.38167 -79.71912 16094 ft 305 kts 323°
2026-04-22 05:13 25.39639 -79.73587 15756 ft 305 kts 306°
2026-04-22 05:13 25.40873 -79.75508 15421 ft 304 kts 306°
2026-04-22 05:14 25.42092 -79.77400 15104 ft 305 kts 306°
2026-04-22 05:14 25.43329 -79.79318 14779 ft 304 kts 306°
2026-04-22 05:14 25.44543 -79.81202 14462 ft 303 kts 306°
2026-04-22 05:14 25.45776 -79.83117 14138 ft 302 kts 306°
2026-04-22 05:15 25.46983 -79.84994 13819 ft 301 kts 306°
2026-04-22 05:15 25.48207 -79.86897 13498 ft 300 kts 306°
2026-04-22 05:15 25.49410 -79.88770 13179 ft 299 kts 306°
2026-04-22 05:15 25.50613 -79.90643 12859 ft 297 kts 306°
2026-04-22 05:16 25.51804 -79.92500 12546 ft 296 kts 306°
2026-04-22 05:16 25.52998 -79.94361 12232 ft 294 kts 306°
2026-04-22 05:16 25.54176 -79.96199 11918 ft 293 kts 306°
2026-04-22 05:16 25.55348 -79.98028 11615 ft 292 kts 306°
2026-04-22 05:17 25.56525 -79.99868 11308 ft 291 kts 306°
2026-04-22 05:17 25.57688 -80.01685 11005 ft 290 kts 307°
2026-04-22 05:17 25.58847 -80.03495 10694 ft 288 kts 306°
2026-04-22 05:17 25.60012 -80.05318 10388 ft 287 kts 307°
2026-04-22 05:18 25.62304 -80.08906 9778 ft 285 kts 307°
2026-04-22 05:18 25.63450 -80.10699 9491 ft 283 kts 307°
2026-04-22 05:18 25.64594 -80.12492 9194 ft 283 kts 307°
2026-04-22 05:19 25.65684 -80.14311 8893 ft 283 kts 300°
2026-04-22 05:19 25.66536 -80.16267 8623 ft 282 kts 297°
2026-04-22 05:19 25.67366 -80.18237 8386 ft 282 kts 297°
2026-04-22 05:19 25.68217 -80.20246 8130 ft 283 kts 297°
2026-04-22 05:20 25.69053 -80.22218 7867 ft 281 kts 297°
2026-04-22 05:20 25.69891 -80.24197 7595 ft 281 kts 297°
2026-04-22 05:20 25.70723 -80.26171 7290 ft 281 kts 296°
2026-04-22 05:20 25.71206 -80.28258 7002 ft 282 kts 275°
2026-04-22 05:21 25.71148 -80.30456 6703 ft 284 kts 269°
2026-04-22 05:21 25.71048 -80.32648 6404 ft 283 kts 269°
2026-04-22 05:21 25.70952 -80.34812 6130 ft 282 kts 269°
2026-04-22 05:21 25.70855 -80.36986 5843 ft 282 kts 269°
2026-04-22 05:22 25.70756 -80.39168 5552 ft 282 kts 269°
2026-04-22 05:22 25.70657 -80.41348 5268 ft 283 kts 269°
2026-04-22 05:22 25.70554 -80.43569 5012 ft 282 kts 269°
2026-04-22 05:22 25.70455 -80.45737 4971 ft 283 kts 269°
2026-04-22 05:23 25.70354 -80.47931 4969 ft 285 kts 269°
2026-04-22 05:23 25.70253 -80.50116 4966 ft 285 kts 269°
2026-04-22 05:23 25.70150 -80.52317 4966 ft 285 kts 269°
2026-04-22 05:23 25.70046 -80.54534 4966 ft 286 kts 269°
2026-04-22 05:24 25.70154 -80.56720 4851 ft 284 kts 289°
2026-04-22 05:24 25.71175 -80.58515 4604 ft 270 kts 325°
2026-04-22 05:24 25.72840 -80.59278 4456 ft 257 kts 359°
2026-04-22 05:24 25.74644 -80.59143 4289 ft 254 kts 17°
2026-04-22 05:25 25.76271 -80.58445 4134 ft 250 kts 33°
2026-04-22 05:25 25.77648 -80.57261 3981 ft 247 kts 49°
2026-04-22 05:25 25.78651 -80.55727 3831 ft 244 kts 64°
2026-04-22 05:25 25.79249 -80.53968 3585 ft 243 kts 78°
2026-04-22 05:26 25.79434 -80.52120 3326 ft 240 kts 88°
2026-04-22 05:26 25.79460 -80.50298 3062 ft 237 kts 88°
2026-04-22 05:26 25.79521 -80.48465 2968 ft 236 kts 87°
2026-04-22 05:26 25.79595 -80.46654 2963 ft 228 kts 87°
2026-04-22 05:27 25.79663 -80.45010 2974 ft 197 kts 87°
2026-04-22 05:27 25.79720 -80.43656 2991 ft 154 kts 86°
2026-04-22 05:27 25.79766 -80.42588 3012 ft 121 kts 86°
2026-04-22 05:27 25.79806 -80.41695 3021 ft 113 kts 86°
2026-04-22 05:28 25.79842 -80.40833 2979 ft 111 kts 86°
2026-04-22 05:28 25.79878 -80.39959 2569 ft 117 kts 86°
2026-04-22 05:28 25.79914 -80.39080 2101 ft 110 kts 86°
2026-04-22 05:28 25.79950 -80.38228 1581 ft 112 kts 86°
2026-04-22 05:29 25.79984 -80.37427 1367 ft 103 kts 85°
2026-04-22 05:29 25.80020 -80.36611 1169 ft 106 kts 86°
2026-04-22 05:29 25.80055 -80.35787 1043 ft 108 kts 85°
2026-04-22 05:29 25.80092 -80.34936 882 ft 111 kts 85°
2026-04-22 05:30 25.80136 -80.34094 747 ft 110 kts 85°
2026-04-22 05:30 25.80170 -80.33227 608 ft 110 kts 86°
2026-04-22 05:30 25.80201 -80.32372 462 ft 115 kts 86°
2026-04-22 05:30 25.80241 -80.31483 308 ft 113 kts 86°
2026-04-22 05:31 25.80272 -80.30616 143 ft 114 kts 85°
2026-04-22 05:31 25.80308 -80.29730 17 ft 112 kts 86°
2026-04-22 05:31 25.80337 -80.29018 11 ft 61 kts 88°
2026-04-22 05:31 25.80362 -80.28698 11 ft 34 kts 74°
2026-04-22 05:32 25.80441 -80.28569 11 ft 12 kts 357°
2026-04-22 05:32 25.80447 -80.28571 11 ft 0 kts 343°
2026-04-22 05:32 25.80465 -80.28598 11 ft 7 kts 269°
2026-04-22 05:33 25.80460 -80.28671 11 ft 11 kts 267°
2026-04-22 05:33 25.80456 -80.28773 11 ft 15 kts 268°
2026-04-22 05:33 25.80452 -80.28903 11 ft 18 kts 268°
2026-04-22 05:33 25.80446 -80.29057 11 ft 21 kts 266°
2026-04-22 05:34 25.80485 -80.29134 11 ft 12 kts 354°
2026-04-22 05:34 25.80581 -80.29134 11 ft 14 kts
2026-04-22 05:34 25.80635 -80.29081 11 ft 7 kts 109°
2026-04-22 05:34 25.80594 -80.29057 11 ft 8 kts 168°
2026-04-22 05:35 25.80580 -80.29084 11 ft 7 kts 321°
2026-04-22 05:35 25.80591 -80.29085 11 ft 0 kts 11°
2026-04-22 05:35 25.80617 -80.29085 11 ft 9 kts 351°
2026-04-22 05:35 25.80636 -80.29153 11 ft 8 kts 270°
2026-04-22 05:36 25.80673 -80.29194 11 ft 7 kts 36°
2026-04-22 05:36 25.80685 -80.29202 11 ft 1 kts 217°
2026-04-22 05:36 25.80679 -80.29202 11 ft 0 kts 161°
2026-04-22 05:36 25.80676 -80.29202 11 ft 0 kts 186°
2026-04-22 05:46 25.80675 -80.29202 11 ft 1 kts 185°
2026-04-22 05:46 25.80663 -80.29221 11 ft 0 kts 281°
2026-04-22 05:46 25.80663 -80.29217 11 ft 2 kts 268°
2026-04-22 05:47 25.80663 -80.29200 11 ft 2 kts 268°
2026-04-22 05:47 25.80665 -80.29184 11 ft 2 kts 238°
2026-04-22 05:47 25.80677 -80.29176 11 ft 2 kts 180°
2026-04-22 05:47 25.80687 -80.29176 11 ft 0 kts 180°